User: anonymous   Login
Location: Montr�al
(45.5000°N, 73.5830°W)
Time: 00:08:52
(UTC-04:00)
Language:

Cosmos 2369 - Orbit

View from above orbital plane
View from above orbital plane
View from above satellite
View from above satellite

Ground track
Ground track

The orbit data is extracted from the following two-line orbital elements,

1 26069U 00006A   17289.53056608 +.00000239 +00000-0 +15256-3 0  9995
2 26069 070.9911 104.8642 0010036 042.1952 317.9940 14.13352932176617
Epoch (UTC): 16 October 2017 12:44:00
Eccentricity: 0.0010036
inclination: 70.9911°
perigee height: 840 km
apogee height: 855 km
right ascension of ascending node: 104.8642°
argument of perigee: 42.1952°
revolutions per day: 14.13352932
mean anomaly at epoch: 317.9940°
orbit number at epoch: 17661

The dashed part of the orbit path shows where the satellite is in the earth's shadow,  

DLR